Colby, KS

7:05 AM CDT on July 28, 2016 (GMT -0500)
Shaltz

Weather History for KCBK - November, 2013

Change the Weather History Date:

Saturday, November 23, 2013

  Actual Average (KGLD) Record (KGLD)
Temperature  
Mean Temperature 28 °F 35 °F  
Max Temperature 32 °F 48 °F 72 °F (1925)
Min Temperature 23 °F 22 °F 0 °F (1941)
Degree Days  
Heating Degree Days 38 30  
Month to date heating degree days 560  
Since 1 July heating degree days 1100  
Cooling Degree Days 0 0  
Month to date cooling degree days 0  
Year to date cooling degree days 941  
Moisture  
Dew Point 20 °F    
Average Humidity 75    
Maximum Humidity 93    
Minimum Humidity 55    
Precipitation  
Precipitation 0.00 in 0.02 in 0.68 in (2001)
Month to date precipitation 0.58  
Year to date precipitation 19.07  
Snow  
Snow 0.00 in 0.20 in - ()
Month to date snowfall 3.3  
Since 1 July snowfall 5.9  
Since 1 September snowfall 5.9  
Snow Depth -    
Sea Level Pressure  
Sea Level Pressure 30.64 in    
Wind  
Wind Speed 7 mph (East)    
Max Wind Speed 13 mph    
Max Gust Speed 17 mph    
Visibility 10 miles    
Events      
T = Trace of Precipitation, MM = Missing Value Source: NWS Daily Summary

Daily Weather History Graph

Daily Weather History Graph

Search for Another Location

Airport or City:

Trip Planner

Search our weather history database for the weather conditions in past years. The results will help you decide how hot, cold, wet, or windy it might be!

Date:

Astronomy

Nov. 23, 2013 Rise Set
Actual Time 7:37 AM CST 5:23 PM CST
Civil Twilight 7:07 AM CST 5:53 PM CST
Nautical Twilight 6:35 AM CST 6:26 PM CST
Astronomical Twilight 6:02 AM CST 6:58 PM CST
Moon 10:53 PM CST (11/23) 11:55 AM CST (11/23)
Length of Visible Light 10h 45m
Length of Day
9h 46m
Waning Gibbous, 69% of the Moon is Illuminated
Nov 23
Waning Gibbous
Nov 25
Last Quarter
Dec 2
New
Dec 9
First Quarter
Dec 17
Full

Hourly Weather History & Observations

Time (CST) Temp. Windchill Dew Point Humidity Pressure Visibility Wind Dir Wind Speed Gust Speed Precip Events Conditions
12:15 AM 30.2 °F 24.3 °F 23.0 °F 75% 30.59 in 10.0 mi NW 5.8 mph - N/A   Clear
12:35 AM 30.2 °F 26.7 °F 23.0 °F 75% 30.59 in 10.0 mi WNW 3.5 mph - N/A   Clear
12:55 AM 30.2 °F - 23.0 °F 75% 30.59 in 10.0 mi Calm Calm - N/A   Clear
1:15 AM 28.4 °F 24.6 °F 24.8 °F 86% 30.60 in 10.0 mi West 3.5 mph - N/A   Scattered Clouds
1:35 AM 28.4 °F 22.2 °F 24.8 °F 86% 30.60 in 10.0 mi WNW 5.8 mph - N/A   Scattered Clouds
1:55 AM 30.2 °F 22.6 °F 24.8 °F 80% 30.60 in 10.0 mi NNW 8.1 mph - N/A   Scattered Clouds
2:15 AM 30.2 °F 23.4 °F 24.8 °F 80% 30.60 in 10.0 mi NNW 6.9 mph - N/A   Scattered Clouds
2:35 AM 30.2 °F 22.6 °F 23.0 °F 75% 30.60 in 10.0 mi NNW 8.1 mph - N/A   Scattered Clouds
2:55 AM 30.2 °F 21.9 °F 23.0 °F 75% 30.61 in 10.0 mi North 9.2 mph - N/A   Mostly Cloudy
3:15 AM 30.2 °F 21.3 °F 23.0 °F 75% 30.61 in 10.0 mi North 10.4 mph - N/A   Scattered Clouds
3:35 AM 28.4 °F 18.5 °F 21.2 °F 74% 30.61 in 10.0 mi North 11.5 mph 16.1 mph N/A   Scattered Clouds
3:55 AM 28.4 °F 18.0 °F 21.2 °F 74% 30.62 in 10.0 mi North 12.7 mph - N/A   Mostly Cloudy
4:15 AM 28.4 °F 18.0 °F 21.2 °F 74% 30.63 in 10.0 mi North 12.7 mph - N/A   Overcast
4:35 AM 28.4 °F 18.5 °F 19.4 °F 69% 30.63 in 10.0 mi NNE 11.5 mph - N/A   Overcast
4:55 AM 28.4 °F 19.7 °F 19.4 °F 69% 30.63 in 10.0 mi NNE 9.2 mph - N/A   Overcast
5:15 AM 26.6 °F 17.5 °F 19.4 °F 74% 30.64 in 10.0 mi NNE 9.2 mph - N/A   Overcast
5:35 AM 26.6 °F 18.2 °F 19.4 °F 74% 30.64 in 10.0 mi NNE 8.1 mph - N/A   Overcast
5:55 AM 26.6 °F 19.1 °F 19.4 °F 74% 30.65 in 10.0 mi NE 6.9 mph - N/A   Overcast
6:15 AM 26.6 °F 18.2 °F 19.4 °F 74% 30.66 in 10.0 mi NNE 8.1 mph - N/A   Overcast
6:35 AM 26.6 °F 19.1 °F 19.4 °F 74% 30.66 in 10.0 mi NNE 6.9 mph - N/A   Overcast
6:55 AM 26.6 °F 19.1 °F 19.4 °F 74% 30.66 in 10.0 mi NNE 6.9 mph - N/A   Overcast
7:15 AM 26.6 °F 18.2 °F 19.4 °F 74% 30.68 in 10.0 mi NNE 8.1 mph - N/A   Overcast
7:35 AM 26.6 °F 19.1 °F 19.4 °F 74% 30.69 in 10.0 mi NNE 6.9 mph - N/A   Overcast
7:55 AM 24.8 °F 15.3 °F 19.4 °F 80% 30.70 in 10.0 mi NNE 9.2 mph - N/A   Mostly Cloudy
8:15 AM 24.8 °F 15.3 °F 19.4 °F 80% 30.71 in 10.0 mi NNE 9.2 mph - N/A   Overcast
8:35 AM 24.8 °F 17.9 °F 19.4 °F 80% 30.71 in 10.0 mi NE 5.8 mph - N/A   Overcast
8:55 AM 24.8 °F 16.1 °F 19.4 °F 80% 30.71 in 10.0 mi NE 8.1 mph - N/A   Overcast
9:15 AM 24.8 °F 14.6 °F 19.4 °F 80% 30.71 in 10.0 mi NNE 10.4 mph - N/A   Overcast
9:35 AM 24.8 °F 15.3 °F 19.4 °F 80% 30.73 in 10.0 mi NE 9.2 mph - N/A   Overcast
9:55 AM 24.8 °F 17.9 °F 19.4 °F 80% 30.73 in 10.0 mi NE 5.8 mph - N/A   Scattered Clouds
10:15 AM 26.6 °F 21.2 °F 19.4 °F 74% 30.73 in 10.0 mi ENE 4.6 mph - N/A   Scattered Clouds
10:35 AM 26.6 °F 21.2 °F 19.4 °F 74% 30.73 in 10.0 mi ENE 4.6 mph - N/A   Scattered Clouds
10:55 AM 26.6 °F 21.2 °F 19.4 °F 74% 30.73 in 10.0 mi ENE 4.6 mph - N/A   Clear
11:15 AM 28.4 °F 23.3 °F 19.4 °F 69% 30.72 in 10.0 mi East 4.6 mph - N/A   Mostly Cloudy
11:55 AM 28.4 °F 23.3 °F 19.4 °F 69% 30.70 in 10.0 mi ENE 4.6 mph - N/A   Clear
12:15 PM 28.4 °F 23.3 °F 19.4 °F 69% 30.69 in 10.0 mi East 4.6 mph - N/A   Clear
12:35 PM 30.2 °F 24.3 °F 19.4 °F 64% 30.68 in 10.0 mi ESE 5.8 mph - N/A   Clear
12:55 PM 30.2 °F 26.7 °F 19.4 °F 64% 30.68 in 10.0 mi East 3.5 mph - N/A   Clear
1:15 PM 30.2 °F 25.4 °F 19.4 °F 64% 30.67 in 10.0 mi SE 4.6 mph - N/A   Clear
1:35 PM 32.0 °F 26.4 °F 19.4 °F 60% 30.66 in 10.0 mi ESE 5.8 mph - N/A   Clear
1:55 PM 32.0 °F 27.5 °F 19.4 °F 60% 30.66 in 10.0 mi ESE 4.6 mph - N/A   Clear
2:15 PM 32.0 °F 28.7 °F 19.4 °F 60% 30.64 in 10.0 mi SSW 3.5 mph - N/A   Clear
2:35 PM 32.0 °F 27.5 °F 19.4 °F 60% 30.63 in 10.0 mi SE 4.6 mph - N/A   Clear
2:55 PM 32.0 °F 26.4 °F 17.6 °F 55% 30.63 in 10.0 mi SE 5.8 mph - N/A   Clear
3:15 PM 32.0 °F 26.4 °F 19.4 °F 60% 30.63 in 10.0 mi SE 5.8 mph - N/A   Clear
3:35 PM 32.0 °F 27.5 °F 17.6 °F 55% 30.63 in 10.0 mi ESE 4.6 mph - N/A   Clear
3:55 PM 32.0 °F 25.6 °F 17.6 °F 55% 30.63 in 10.0 mi SE 6.9 mph - N/A   Clear
4:15 PM 32.0 °F 25.6 °F 19.4 °F 60% 30.63 in 10.0 mi SE 6.9 mph - N/A   Clear
4:35 PM 32.0 °F 26.4 °F 19.4 °F 60% 30.63 in 10.0 mi SE 5.8 mph - N/A   Clear
4:55 PM 30.2 °F 24.3 °F 19.4 °F 64% 30.63 in 10.0 mi SE 5.8 mph - N/A   Clear
5:15 PM 28.4 °F 22.2 °F 19.4 °F 69% 30.62 in 10.0 mi SE 5.8 mph - N/A   Clear
5:35 PM 26.6 °F 19.1 °F 17.6 °F 69% 30.62 in 10.0 mi SE 6.9 mph - N/A   Clear
5:55 PM 26.6 °F 18.2 °F 19.4 °F 74% 30.62 in 10.0 mi SSE 8.1 mph - N/A   Clear
6:15 PM 24.8 °F 16.1 °F 17.6 °F 74% 30.62 in 10.0 mi SE 8.1 mph - N/A   Clear
6:35 PM 24.8 °F 16.1 °F 17.6 °F 74% 30.62 in 10.0 mi SSE 8.1 mph - N/A   Clear
6:55 PM 24.8 °F 16.9 °F 17.6 °F 74% 30.61 in 10.0 mi SSE 6.9 mph - N/A   Clear
7:15 PM 24.8 °F 16.1 °F 19.4 °F 80% 30.61 in 10.0 mi SE 8.1 mph - N/A   Clear
7:35 PM 24.8 °F 15.3 °F 17.6 °F 74% 30.61 in 10.0 mi SSE 9.2 mph - N/A   Clear
7:55 PM 23.0 °F 15.8 °F 17.6 °F 80% 30.60 in 10.0 mi SSE 5.8 mph - N/A   Clear
8:15 PM 23.0 °F 13.9 °F 19.4 °F 86% 30.60 in 10.0 mi SSE 8.1 mph - N/A   Clear
8:35 PM 23.0 °F 13.9 °F 19.4 °F 86% 30.59 in 10.0 mi SSE 8.1 mph - N/A   Clear
8:55 PM 23.0 °F 14.7 °F 19.4 °F 86% 30.59 in 10.0 mi SSE 6.9 mph - N/A   Clear
9:15 PM 23.0 °F 15.8 °F 19.4 °F 86% 30.59 in 10.0 mi SSE 5.8 mph - N/A   Clear
9:35 PM 23.0 °F 14.7 °F 19.4 °F 86% 30.59 in 10.0 mi SSE 6.9 mph - N/A   Clear
9:55 PM 23.0 °F 14.7 °F 19.4 °F 86% 30.59 in 10.0 mi SSE 6.9 mph - N/A   Clear
10:15 PM 23.0 °F 14.7 °F 19.4 °F 86% 30.59 in 10.0 mi South 6.9 mph - N/A   Clear
10:35 PM 23.0 °F 13.1 °F 19.4 °F 86% 30.58 in 10.0 mi South 9.2 mph - N/A   Clear
10:55 PM 23.0 °F 13.1 °F 21.2 °F 93% 30.57 in 10.0 mi South 9.2 mph - N/A   Clear
11:15 PM 23.0 °F 12.4 °F 21.2 °F 93% 30.56 in 10.0 mi South 10.4 mph - N/A   Clear
11:35 PM 23.0 °F 11.7 °F 21.2 °F 93% 30.56 in 10.0 mi South 11.5 mph 17.3 mph N/A   Clear
11:55 PM 23.0 °F 13.1 °F 21.2 °F 93% 30.55 in 10.0 mi South 9.2 mph - N/A   Clear